TimeEDT,TemperatureF,Dew PointF,Humidity,Sea Level PressureIn,VisibilityMPH,Wind Direction,Wind SpeedMPH,Gust SpeedMPH,PrecipitationIn,Events,Conditions,WindDirDegrees,DateUTC
12:11 AM,69.1,66.0,90,30.10,10.0,Calm,Calm,-,N/A,,Overcast,0,2014-08-03 04:11:00
12:53 AM,69.1,66.0,90,30.07,10.0,Calm,Calm,-,N/A,,Overcast,0,2014-08-03 04:53:00
1:53 AM,68.0,64.9,90,30.07,9.0,Calm,Calm,-,N/A,,Overcast,0,2014-08-03 05:53:00
2:53 AM,68.0,64.9,90,30.06,10.0,Calm,Calm,-,N/A,,Overcast,0,2014-08-03 06:53:00
4:53 AM,68.0,66.0,93,30.06,10.0,Calm,Calm,-,N/A,,Overcast,0,2014-08-03 08:53:00
5:53 AM,66.9,64.9,93,30.06,7.0,Calm,Calm,-,N/A,,Overcast,0,2014-08-03 09:53:00
6:53 AM,66.0,64.9,96,30.06,5.0,Calm,Calm,-,N/A,,Clear,0,2014-08-03 10:53:00
7:53 AM,68.0,64.9,90,30.06,9.0,Calm,Calm,-,N/A,,Clear,0,2014-08-03 11:53:00
8:53 AM,73.0,66.0,79,30.06,10.0,Calm,Calm,-,N/A,,Clear,0,2014-08-03 12:53:00
9:53 AM,75.0,63.0,66,30.08,10.0,Calm,Calm,-,N/A,,Clear,0,2014-08-03 13:53:00
10:53 AM,78.1,64.0,62,30.08,10.0,Calm,Calm,-,N/A,,Clear,0,2014-08-03 14:53:00
11:53 AM,78.1,62.1,58,30.07,10.0,Calm,Calm,-,N/A,,Mostly Cloudy,0,2014-08-03 15:53:00
12:53 PM,81.0,64.0,56,30.07,10.0,SSE,6.9,-,N/A,,Mostly Cloudy,150,2014-08-03 16:53:00
1:53 PM,81.0,64.0,56,30.06,10.0,South,9.2,-,N/A,,Scattered Clouds,180,2014-08-03 17:53:00
2:53 PM,82.9,63.0,51,30.04,10.0,SSW,8.1,-,N/A,,Scattered Clouds,200,2014-08-03 18:53:00
3:53 PM,82.9,63.0,51,30.02,10.0,South,11.5,-,N/A,,Partly Cloudy,190,2014-08-03 19:53:00
4:53 PM,82.9,64.0,53,30.01,10.0,South,11.5,-,N/A,,Clear,170,2014-08-03 20:53:00
5:53 PM,82.0,63.0,52,30.01,10.0,SW,3.5,-,N/A,,Partly Cloudy,230,2014-08-03 21:53:00
6:53 PM,81.0,63.0,54,30.01,10.0,SSW,8.1,-,N/A,,Clear,210,2014-08-03 22:53:00
7:53 PM,79.0,64.9,62,30.02,10.0,SSW,3.5,-,N/A,,Clear,210,2014-08-03 23:53:00
8:53 PM,73.9,64.9,73,30.03,10.0,South,6.9,-,N/A,,Clear,180,2014-08-04 00:53:00
10:53 PM,71.1,64.9,81,30.06,10.0,South,5.8,-,N/A,,Partly Cloudy,190,2014-08-04 02:53:00
11:53 PM,69.1,64.9,87,30.07,10.0,NNW,3.5,-,N/A,,Mostly Cloudy,330,2014-08-04 03:53:00